Home > Weather > Tallinn > Past weeks

Flag for Estonia Past Weather in Tallinn, Estonia — Yesterday and Last 2 Weeks

Now
63 °F

Rain. Passing clouds.


Feels Like: 63 °F
Forecast: 60 / 67 °F
Wind: 5 mph from Southwest

Location: Tallinn

Current Time: Aug 26, 2016 at 6:28:21 AM

Latest Report: Aug 26, 2016 at 5:50 AM


Visibility: 3 mi

Pressure: 30.09 "Hg

Humidity: 94%

Dew Point: 61 °F

Location of TallinnLocation

Past Weather in Tallinn — Graph

°F

Tallinn Temperature Yesterday

Maximum temperature yesterday: 72 °F (at 1:20 PM)
Minimum temperature yesterday: 52 °F (at 5:50 AM)
Average temperature yesterday: 62 °F

High & Low Weather Summary for the Past Weeks

 TemperatureHumidityPressure
High79 °F (Aug 21, 2:50 PM)100% (Aug 11, 7:20 AM)30.24 "Hg (Aug 11, 7:20 AM)
Low45 °F (Aug 12, 4:50 AM)47% (Aug 21, 12:50 PM)29.59 "Hg (Aug 17, 7:50 AM)
Average60 °F86%29.94 "Hg
* Reported Aug 11 5:20 AM — Aug 26 5:20 AM, Tallinn, Weather by CustomWeather, © 2016

Note: Actual official high and low records may vary slightly from our data, if they occured in-between our weather recording intervals... More about our weather records

Advertising

Tallinn Weather History for the Previous 24 Hours

Scroll right to see more
 ConditionsComfort  
Time TempWeatherWind HumidityBarometerVisibility
5:20 AM
Fri, Aug 26
63 °FRain. Partly cloudy.7 mph94%30.07 "Hg3 mi
4:50 AM63 °FRain. Low clouds.7 mph94%30.07 "Hg4 mi
4:20 AM63 °FLow clouds.6 mph94%30.07 "Hg6 mi
3:50 AM63 °FRain. Low clouds.6 mph94%30.09 "Hg4 mi
3:20 AM63 °FRain. Passing clouds.7 mph94%30.09 "Hg4 mi
2:50 AM63 °FPassing clouds.8 mph94%30.09 "HgN/A
2:20 AM63 °FLight rain. Clear.7 mph94%30.09 "HgN/A
1:50 AM63 °FLight rain. Clear.8 mph94%30.09 "HgN/A
1:20 AM63 °FClear.9 mph94%30.09 "Hg10 mi
12:50 AM63 °FClear.7 mph88%30.09 "Hg10 mi
12:20 AM63 °FPassing clouds.7 mph88%30.09 "HgN/A
11:50 PM
Thu, Aug 25
63 °FSprinkles. Passing clouds.8 mph88%30.09 "HgN/A
11:20 PM63 °FPassing clouds.9 mph88%30.12 "HgN/A
10:50 PM63 °FClear.7 mph88%30.12 "Hg10 mi
10:20 PM64 °FPassing clouds.6 mph83%30.12 "HgN/A
9:50 PM64 °FClear.7 mph88%30.12 "Hg10 mi
9:20 PM64 °FSunny.6 mph88%30.12 "Hg10 mi
8:50 PM64 °FSunny.8 mph88%30.12 "Hg10 mi
8:20 PM66 °FSunny.8 mph83%30.12 "Hg10 mi
7:50 PM66 °FSunny.8 mph83%30.12 "Hg10 mi
7:20 PM68 °FSunny.9 mph78%30.12 "Hg10 mi
6:50 PM68 °FPassing clouds.9 mph78%30.12 "HgN/A
6:20 PM68 °FScattered clouds.10 mph73%30.12 "HgN/A
5:50 PM68 °FPassing clouds.13 mph73%30.12 "HgN/A
5:20 PM70 °FPassing clouds.14 mph69%30.12 "HgN/A
4:50 PM70 °FScattered clouds.16 mph69%30.12 "HgN/A
4:20 PM72 °FScattered clouds.14 mph69%30.15 "HgN/A
3:50 PM72 °FScattered clouds.18 mph65%30.15 "HgN/A
3:20 PM72 °FPartly sunny.16 mph65%30.15 "HgN/A
2:50 PM72 °FPartly sunny.13 mph69%30.15 "HgN/A
2:20 PM72 °FPartly sunny.16 mph69%30.15 "HgN/A
1:50 PM72 °FPartly sunny.12 mph69%30.15 "HgN/A
1:20 PM72 °FPartly sunny.13 mph69%30.15 "HgN/A
12:50 PM68 °FSunny.15 mph73%30.15 "Hg10 mi
12:20 PM70 °FSunny.13 mph69%30.15 "Hg10 mi
11:50 AM68 °FSunny.13 mph73%30.15 "Hg10 mi
11:20 AM64 °FSunny.12 mph83%30.18 "Hg10 mi
10:50 AM63 °FSunny.12 mph88%30.18 "Hg10 mi
10:20 AM63 °FPassing clouds.10 mph83%30.18 "HgN/A
9:50 AM61 °FPartly sunny.8 mph94%30.18 "HgN/A
9:20 AM59 °FLow clouds.7 mph94%30.18 "Hg6 mi
8:50 AM57 °FFog.9 mph100%30.21 "Hg2 mi
8:20 AM57 °FFog.7 mph100%30.21 "HgN/A
7:50 AM55 °FSunny.5 mph100%30.21 "Hg10 mi
7:20 AM54 °FSunny.1 mph100%30.21 "Hg10 mi
6:50 AM54 °FClear.2 mph100%30.21 "Hg10 mi
6:20 AM52 °FClear.5 mph100%30.21 "Hg10 mi
Weather by CustomWeather, © 2016

See weather overviewHow to use our weather pages